Year,Month,Day,Hour,Minute,Value (Times are PST for temperature in C)
2016,09,15,00,00,12.10
2016,09,15,00,01,12.10
2016,09,15,00,02,12.10
2016,09,15,00,03,12.10
2016,09,15,00,04,12.10
2016,09,15,00,05,12.10
2016,09,15,00,06,12.00
2016,09,15,00,07,12.00
2016,09,15,00,08,12.00
2016,09,15,00,09,12.00
2016,09,15,00,10,11.90
2016,09,15,00,11,11.90
2016,09,15,00,12,11.90
2016,09,15,00,13,11.90
2016,09,15,00,14,11.90
2016,09,15,00,15,11.90
2016,09,15,00,16,11.80
2016,09,15,00,17,11.80
2016,09,15,00,18,11.80
2016,09,15,00,19,11.80
2016,09,15,00,20,11.80
2016,09,15,00,21,11.80
2016,09,15,00,22,11.80
2016,09,15,00,23,11.70
2016,09,15,00,24,11.70
2016,09,15,00,25,11.70
2016,09,15,00,26,11.70
2016,09,15,00,27,11.70
2016,09,15,00,28,11.70
2016,09,15,00,29,11.70
2016,09,15,00,30,11.70
2016,09,15,00,31,11.70
2016,09,15,00,32,11.70
2016,09,15,00,33,11.60
2016,09,15,00,34,11.60
2016,09,15,00,35,11.60
2016,09,15,00,36,11.60
2016,09,15,00,37,11.60
2016,09,15,00,38,11.60
2016,09,15,00,39,11.60
2016,09,15,00,40,11.60
2016,09,15,00,41,11.60
2016,09,15,00,42,11.60
2016,09,15,00,43,11.50
2016,09,15,00,44,11.50
2016,09,15,00,45,11.50
2016,09,15,00,46,11.50
2016,09,15,00,47,11.50
2016,09,15,00,48,11.50
2016,09,15,00,49,11.50
2016,09,15,00,50,11.50
2016,09,15,00,51,11.50
2016,09,15,00,52,11.40
2016,09,15,00,53,11.40
2016,09,15,00,54,11.40
2016,09,15,00,55,11.40
2016,09,15,00,56,11.40
2016,09,15,00,57,11.40
2016,09,15,00,58,11.40
2016,09,15,00,59,11.40
2016,09,15,01,00,11.40
2016,09,15,01,01,11.40
2016,09,15,01,02,11.40
2016,09,15,01,03,11.40
2016,09,15,01,04,11.40
2016,09,15,01,05,11.40
2016,09,15,01,06,11.30
2016,09,15,01,07,11.30
2016,09,15,01,08,11.30
2016,09,15,01,09,11.30
2016,09,15,01,10,11.30
2016,09,15,01,11,11.30
2016,09,15,01,12,11.30
2016,09,15,01,13,11.30
2016,09,15,01,14,11.30
2016,09,15,01,15,11.30
2016,09,15,01,16,11.30
2016,09,15,01,17,11.30
2016,09,15,01,18,11.30
2016,09,15,01,19,11.30
2016,09,15,01,20,11.30
2016,09,15,01,21,11.30
2016,09,15,01,22,11.30
2016,09,15,01,23,11.30
2016,09,15,01,24,11.40
2016,09,15,01,25,11.40
2016,09,15,01,26,11.40
2016,09,15,01,27,11.40
2016,09,15,01,28,11.40
2016,09,15,01,29,11.40
2016,09,15,01,30,11.50
2016,09,15,01,31,11.40
2016,09,15,01,32,11.50
2016,09,15,01,33,11.50
2016,09,15,01,34,11.50
2016,09,15,01,35,11.50
2016,09,15,01,36,11.50
2016,09,15,01,37,11.50
2016,09,15,01,38,11.40
2016,09,15,01,39,11.40
2016,09,15,01,40,11.40
2016,09,15,01,41,11.40
2016,09,15,01,42,11.40
2016,09,15,01,43,11.40
2016,09,15,01,44,11.40
2016,09,15,01,45,11.40
2016,09,15,01,46,11.40
2016,09,15,01,47,11.40
2016,09,15,01,48,11.40
2016,09,15,01,49,11.40
2016,09,15,01,50,11.40
2016,09,15,01,51,11.40
2016,09,15,01,52,11.40
2016,09,15,01,53,11.40
2016,09,15,01,54,11.40
2016,09,15,01,55,11.40
2016,09,15,01,56,11.40
2016,09,15,01,57,11.40
2016,09,15,01,58,11.40
2016,09,15,01,59,11.40
2016,09,15,02,00,11.30
2016,09,15,02,01,11.30
2016,09,15,02,02,11.30
2016,09,15,02,03,11.30
2016,09,15,02,04,11.30
2016,09,15,02,05,11.30
2016,09,15,02,06,11.30
2016,09,15,02,07,11.30
2016,09,15,02,08,11.30
2016,09,15,02,09,11.30
2016,09,15,02,10,11.30
2016,09,15,02,11,11.30
2016,09,15,02,12,11.30
2016,09,15,02,13,11.30
2016,09,15,02,14,11.20
2016,09,15,02,15,11.20
2016,09,15,02,16,11.20
2016,09,15,02,17,11.20
2016,09,15,02,18,11.20
2016,09,15,02,19,11.20
2016,09,15,02,20,11.20
2016,09,15,02,21,11.20
2016,09,15,02,22,11.20
2016,09,15,02,23,11.10
2016,09,15,02,24,11.10
2016,09,15,02,25,11.10
2016,09,15,02,26,11.10
2016,09,15,02,27,11.10
2016,09,15,02,28,11.10
2016,09,15,02,29,11.00
2016,09,15,02,30,11.00
2016,09,15,02,31,11.00
2016,09,15,02,32,11.00
2016,09,15,02,33,10.90
2016,09,15,02,34,10.90
2016,09,15,02,35,10.90
2016,09,15,02,36,10.90
2016,09,15,02,37,10.90
2016,09,15,02,38,10.90
2016,09,15,02,39,10.80
2016,09,15,02,40,10.80
2016,09,15,02,41,10.80
2016,09,15,02,42,10.80
2016,09,15,02,43,10.80
2016,09,15,02,44,10.80
2016,09,15,02,45,10.80
2016,09,15,02,46,10.70
2016,09,15,02,47,10.70
2016,09,15,02,48,10.70
2016,09,15,02,49,10.70
2016,09,15,02,50,10.70
2016,09,15,02,51,10.70
2016,09,15,02,52,10.70
2016,09,15,02,53,10.60
2016,09,15,02,54,10.60
2016,09,15,02,55,10.60
2016,09,15,02,56,10.60
2016,09,15,02,57,10.60
2016,09,15,02,58,10.60
2016,09,15,02,59,10.50
2016,09,15,03,00,10.50
2016,09,15,03,01,10.50
2016,09,15,03,02,10.50
2016,09,15,03,03,10.50
2016,09,15,03,04,10.50
2016,09,15,03,05,10.50
2016,09,15,03,06,10.50
2016,09,15,03,07,10.50
2016,09,15,03,08,10.50
2016,09,15,03,09,10.50
2016,09,15,03,10,10.50
2016,09,15,03,11,10.50
2016,09,15,03,12,10.50
2016,09,15,03,13,10.50
2016,09,15,03,14,10.50
2016,09,15,03,15,10.50
2016,09,15,03,16,10.50
2016,09,15,03,17,10.50
2016,09,15,03,18,10.50
2016,09,15,03,19,10.40
2016,09,15,03,20,10.40
2016,09,15,03,21,10.40
2016,09,15,03,22,10.40
2016,09,15,03,23,10.40
2016,09,15,03,24,10.50
2016,09,15,03,25,10.50
2016,09,15,03,26,10.50
2016,09,15,03,27,10.50
2016,09,15,03,28,10.50
2016,09,15,03,29,10.50
2016,09,15,03,30,10.50
2016,09,15,03,31,10.60
2016,09,15,03,32,10.60
2016,09,15,03,33,10.60
2016,09,15,03,34,10.60
2016,09,15,03,35,10.60
2016,09,15,03,36,10.60
2016,09,15,03,37,10.60
2016,09,15,03,38,10.60
2016,09,15,03,39,10.60
2016,09,15,03,40,10.60
2016,09,15,03,41,10.60
2016,09,15,03,42,10.60
2016,09,15,03,43,10.60
2016,09,15,03,44,10.60
2016,09,15,03,45,10.60
2016,09,15,03,46,10.60
2016,09,15,03,47,10.60
2016,09,15,03,48,10.60
2016,09,15,03,49,10.60
2016,09,15,03,50,10.60
2016,09,15,03,51,10.60
2016,09,15,03,52,10.60
2016,09,15,03,53,10.60
2016,09,15,03,54,10.60
2016,09,15,03,55,10.60
2016,09,15,03,56,10.60
2016,09,15,03,57,10.60
2016,09,15,03,58,10.60
2016,09,15,03,59,10.60
2016,09,15,04,00,10.60
2016,09,15,04,01,10.60
2016,09,15,04,02,10.60
2016,09,15,04,03,10.60
2016,09,15,04,04,10.60
2016,09,15,04,05,10.60
2016,09,15,04,06,10.50
2016,09,15,04,07,10.50
2016,09,15,04,08,10.50
2016,09,15,04,09,10.50
2016,09,15,04,10,10.50
2016,09,15,04,11,10.50
2016,09,15,04,12,10.50
2016,09,15,04,13,10.50
2016,09,15,04,14,10.50
2016,09,15,04,15,10.40
2016,09,15,04,16,10.40
2016,09,15,04,17,10.40
2016,09,15,04,18,10.50
2016,09,15,04,19,10.50
2016,09,15,04,20,10.50
2016,09,15,04,21,10.50
2016,09,15,04,22,10.50
2016,09,15,04,23,10.50
2016,09,15,04,24,10.50
2016,09,15,04,25,10.50
2016,09,15,04,26,10.50
2016,09,15,04,27,10.50
2016,09,15,04,28,10.50
2016,09,15,04,29,10.50
2016,09,15,04,30,10.50
2016,09,15,04,31,10.50
2016,09,15,04,32,10.50
2016,09,15,04,33,10.60
2016,09,15,04,34,10.60
2016,09,15,04,35,10.60
2016,09,15,04,36,10.60
2016,09,15,04,37,10.60
2016,09,15,04,38,10.60
2016,09,15,04,39,10.60
2016,09,15,04,40,10.60
2016,09,15,04,41,10.60
2016,09,15,04,42,10.60
2016,09,15,04,43,10.50
2016,09,15,04,44,10.50
2016,09,15,04,45,10.50
2016,09,15,04,46,10.50
2016,09,15,04,47,10.50
2016,09,15,04,48,10.50
2016,09,15,04,49,10.50
2016,09,15,04,50,10.40
2016,09,15,04,51,10.40
2016,09,15,04,52,10.40
2016,09,15,04,53,10.40
2016,09,15,04,54,10.40
2016,09,15,04,55,10.40
2016,09,15,04,56,10.40
2016,09,15,04,57,10.40
2016,09,15,04,58,10.40
2016,09,15,04,59,10.40
2016,09,15,05,00,10.30
2016,09,15,05,01,10.30
2016,09,15,05,02,10.30
2016,09,15,05,03,10.30
2016,09,15,05,04,10.30
2016,09,15,05,05,10.30
2016,09,15,05,06,10.30
2016,09,15,05,07,10.20
2016,09,15,05,08,10.20
2016,09,15,05,09,10.20
2016,09,15,05,10,10.20
2016,09,15,05,11,10.20
2016,09,15,05,12,10.20
2016,09,15,05,13,10.20
2016,09,15,05,14,10.20
2016,09,15,05,15,10.20
2016,09,15,05,16,10.20
2016,09,15,05,17,10.20
2016,09,15,05,18,10.10
2016,09,15,05,19,10.10
2016,09,15,05,20,10.10
2016,09,15,05,21,10.10
2016,09,15,05,22,10.10
2016,09,15,05,23,10.10
2016,09,15,05,24,10.10
2016,09,15,05,25,10.10
2016,09,15,05,26,10.10
2016,09,15,05,27,10.10
2016,09,15,05,28,10.10
2016,09,15,05,29,10.10
2016,09,15,05,30,10.00
2016,09,15,05,31,10.10
2016,09,15,05,32,10.10
2016,09,15,05,33,10.00
2016,09,15,05,34,10.00
2016,09,15,05,35,10.00
2016,09,15,05,36,10.00
2016,09,15,05,37,10.00
2016,09,15,05,38,10.00
2016,09,15,05,39,9.90
2016,09,15,05,40,9.90
2016,09,15,05,41,9.90
2016,09,15,05,42,9.90
2016,09,15,05,43,9.90
2016,09,15,05,44,9.90
2016,09,15,05,45,9.90
2016,09,15,05,46,9.90
2016,09,15,05,47,9.90
2016,09,15,05,48,9.90
2016,09,15,05,49,9.90
2016,09,15,05,50,9.90
2016,09,15,05,51,9.90
2016,09,15,05,52,9.90
2016,09,15,05,53,9.90
2016,09,15,05,54,9.90
2016,09,15,05,55,9.90
2016,09,15,05,56,9.90
2016,09,15,05,57,9.90
2016,09,15,05,58,9.90
2016,09,15,05,59,9.90
2016,09,15,06,00,9.90
2016,09,15,06,01,9.90
2016,09,15,06,02,9.90
2016,09,15,06,03,9.90
2016,09,15,06,04,9.90
2016,09,15,06,05,9.90
2016,09,15,06,06,9.90
2016,09,15,06,07,9.90
2016,09,15,06,08,9.90
2016,09,15,06,09,9.90
2016,09,15,06,10,9.90
2016,09,15,06,11,9.90
2016,09,15,06,12,9.90
2016,09,15,06,13,9.90
2016,09,15,06,14,9.90
2016,09,15,06,15,9.90
2016,09,15,06,16,9.90
2016,09,15,06,17,9.90
2016,09,15,06,18,9.90
2016,09,15,06,19,9.90
2016,09,15,06,20,9.90
2016,09,15,06,21,9.90
2016,09,15,06,22,9.90
2016,09,15,06,23,9.90
2016,09,15,06,24,9.90
2016,09,15,06,25,9.80
2016,09,15,06,26,9.80
2016,09,15,06,27,9.80
2016,09,15,06,28,9.80
2016,09,15,06,29,9.80
2016,09,15,06,30,9.80
2016,09,15,06,31,9.80
2016,09,15,06,32,9.80
2016,09,15,06,33,9.80
2016,09,15,06,34,9.80
2016,09,15,06,35,9.80
2016,09,15,06,36,9.80
2016,09,15,06,37,9.80
2016,09,15,06,38,9.80
2016,09,15,06,39,9.80
2016,09,15,06,40,9.80
2016,09,15,06,41,9.90
2016,09,15,06,42,9.90
2016,09,15,06,43,9.90
2016,09,15,06,44,9.90
2016,09,15,06,45,9.90
2016,09,15,06,46,9.90
2016,09,15,06,47,9.90
2016,09,15,06,48,9.90
2016,09,15,06,49,9.90
2016,09,15,06,50,9.90
2016,09,15,06,51,9.90
2016,09,15,06,52,9.90
2016,09,15,06,53,9.90
2016,09,15,06,54,9.90
2016,09,15,06,55,10.00
2016,09,15,06,56,10.00
2016,09,15,06,57,10.00
2016,09,15,06,58,10.00
2016,09,15,06,59,10.00
2016,09,15,07,00,10.00
2016,09,15,07,01,10.00
2016,09,15,07,02,10.00
2016,09,15,07,03,10.10
2016,09,15,07,04,10.10
2016,09,15,07,05,10.10
2016,09,15,07,06,10.10
2016,09,15,07,07,10.10
2016,09,15,07,08,10.10
2016,09,15,07,09,10.10
2016,09,15,07,10,10.10
2016,09,15,07,11,10.10
2016,09,15,07,12,10.10
2016,09,15,07,13,10.10
2016,09,15,07,14,10.10
2016,09,15,07,15,10.10
2016,09,15,07,16,10.10
2016,09,15,07,17,10.10
2016,09,15,07,18,10.10
2016,09,15,07,19,10.20
2016,09,15,07,20,10.20
2016,09,15,07,21,10.20
2016,09,15,07,22,10.20
2016,09,15,07,23,10.20
2016,09,15,07,24,10.20
2016,09,15,07,25,10.20
2016,09,15,07,26,10.20
2016,09,15,07,27,10.20
2016,09,15,07,28,10.20
2016,09,15,07,29,10.20
2016,09,15,07,30,10.20
2016,09,15,07,31,10.20
2016,09,15,07,32,10.20
2016,09,15,07,33,10.20
2016,09,15,07,34,10.20
2016,09,15,07,35,10.30
2016,09,15,07,36,10.30
2016,09,15,07,37,10.30
2016,09,15,07,38,10.30
2016,09,15,07,39,10.30
2016,09,15,07,40,10.30
2016,09,15,07,41,10.30
2016,09,15,07,42,10.30
2016,09,15,07,43,10.30
2016,09,15,07,44,10.40
2016,09,15,07,45,10.40
2016,09,15,07,46,10.40
2016,09,15,07,47,10.40
2016,09,15,07,48,10.40
2016,09,15,07,49,10.40
2016,09,15,07,50,10.40
2016,09,15,07,51,10.40
2016,09,15,07,52,10.40
2016,09,15,07,53,10.50
2016,09,15,07,54,10.50
2016,09,15,07,55,10.50
2016,09,15,07,56,10.60
2016,09,15,07,57,10.60
2016,09,15,07,58,10.60
2016,09,15,07,59,10.70
2016,09,15,08,00,10.70
2016,09,15,08,01,10.70
2016,09,15,08,02,10.70
2016,09,15,08,03,10.80
2016,09,15,08,04,10.80
2016,09,15,08,05,10.80
2016,09,15,08,06,10.80
2016,09,15,08,07,10.90
2016,09,15,08,08,10.90
2016,09,15,08,09,11.00
2016,09,15,08,10,11.00
2016,09,15,08,11,11.10
2016,09,15,08,12,11.10
2016,09,15,08,13,11.20
2016,09,15,08,14,11.30
2016,09,15,08,15,11.30
2016,09,15,08,16,11.40
2016,09,15,08,17,11.40
2016,09,15,08,18,11.50
2016,09,15,08,19,11.60
2016,09,15,08,20,11.70
2016,09,15,08,21,11.80
2016,09,15,08,22,11.80
2016,09,15,08,23,11.90
2016,09,15,08,24,12.00
2016,09,15,08,25,12.10
2016,09,15,08,26,12.30
2016,09,15,08,27,12.40
2016,09,15,08,28,12.50
2016,09,15,08,29,12.60
2016,09,15,08,30,12.60
2016,09,15,08,31,12.70
2016,09,15,08,32,12.80
2016,09,15,08,33,12.90
2016,09,15,08,34,13.00
2016,09,15,08,35,13.20
2016,09,15,08,36,13.30
2016,09,15,08,37,13.40
2016,09,15,08,38,13.50
2016,09,15,08,39,13.60
2016,09,15,08,40,13.70
2016,09,15,08,41,13.70
2016,09,15,08,42,13.80
2016,09,15,08,43,13.90
2016,09,15,08,44,14.00
2016,09,15,08,45,14.10
2016,09,15,08,46,14.20
2016,09,15,08,47,14.20
2016,09,15,08,48,14.20
2016,09,15,08,49,14.30
2016,09,15,08,50,14.30
2016,09,15,08,51,14.30
2016,09,15,08,52,14.30
2016,09,15,08,53,14.40
2016,09,15,08,54,14.40
2016,09,15,08,55,14.50
2016,09,15,08,56,14.50
2016,09,15,08,57,14.60
2016,09,15,08,58,14.60
2016,09,15,08,59,14.60
2016,09,15,09,00,14.70
2016,09,15,09,01,14.70
2016,09,15,09,02,14.70
2016,09,15,09,03,14.80
2016,09,15,09,04,14.80
2016,09,15,09,05,14.80
2016,09,15,09,06,14.90
2016,09,15,09,07,14.90
2016,09,15,09,08,15.00
2016,09,15,09,09,15.00
2016,09,15,09,10,15.10
2016,09,15,09,11,15.10
2016,09,15,09,12,15.20
2016,09,15,09,13,15.20
2016,09,15,09,14,15.20
2016,09,15,09,15,15.30
2016,09,15,09,16,15.30
2016,09,15,09,17,15.30
2016,09,15,09,18,15.40
2016,09,15,09,19,15.40
2016,09,15,09,20,15.40
2016,09,15,09,21,15.40
2016,09,15,09,22,15.40
2016,09,15,09,23,15.40
2016,09,15,09,24,15.50
2016,09,15,09,25,15.50
2016,09,15,09,26,15.50
2016,09,15,09,27,15.50
2016,09,15,09,28,15.50
2016,09,15,09,29,15.50
2016,09,15,09,30,15.50
2016,09,15,09,31,15.50
2016,09,15,09,32,15.50
2016,09,15,09,33,15.50
2016,09,15,09,34,15.50
2016,09,15,09,35,15.50
2016,09,15,09,36,15.50
2016,09,15,09,37,15.50
2016,09,15,09,38,15.50
2016,09,15,09,39,15.50
2016,09,15,09,40,15.60
2016,09,15,09,41,15.60
2016,09,15,09,42,15.60
2016,09,15,09,43,15.60
2016,09,15,09,44,15.60
2016,09,15,09,45,15.60
2016,09,15,09,46,15.60
2016,09,15,09,47,15.60
2016,09,15,09,48,15.60
2016,09,15,09,49,15.60
2016,09,15,09,50,15.60
2016,09,15,09,51,15.60
2016,09,15,09,52,15.60
2016,09,15,09,53,15.60
2016,09,15,09,54,15.60
2016,09,15,09,55,15.60
2016,09,15,09,56,15.60
2016,09,15,09,57,15.60
2016,09,15,09,58,15.60
2016,09,15,09,59,15.70
2016,09,15,10,00,15.70
2016,09,15,10,01,15.70
2016,09,15,10,02,15.70
2016,09,15,10,03,15.70
2016,09,15,10,04,15.70
2016,09,15,10,05,15.70
2016,09,15,10,06,15.70
2016,09,15,10,07,15.70
2016,09,15,10,08,15.80
2016,09,15,10,09,15.80
2016,09,15,10,10,15.80
2016,09,15,10,11,15.90
2016,09,15,10,12,15.90
2016,09,15,10,13,15.90
2016,09,15,10,14,16.00
2016,09,15,10,15,16.00
2016,09,15,10,16,16.10
2016,09,15,10,17,16.10
2016,09,15,10,18,16.20
2016,09,15,10,19,16.20
2016,09,15,10,20,16.20
2016,09,15,10,21,16.20
2016,09,15,10,22,16.30
2016,09,15,10,23,16.30
2016,09,15,10,24,16.30
2016,09,15,10,25,16.30
2016,09,15,10,26,16.30
2016,09,15,10,27,16.30
2016,09,15,10,28,16.30
2016,09,15,10,29,16.30
2016,09,15,10,30,16.40
2016,09,15,10,31,16.40
2016,09,15,10,32,16.40
2016,09,15,10,33,16.40
2016,09,15,10,34,16.40
2016,09,15,10,35,16.40
2016,09,15,10,36,16.40
2016,09,15,10,37,16.40
2016,09,15,10,38,16.40
2016,09,15,10,39,16.40
2016,09,15,10,40,16.40
2016,09,15,10,41,16.40
2016,09,15,10,42,16.40
2016,09,15,10,43,16.40
2016,09,15,10,44,16.40
2016,09,15,10,45,16.40
2016,09,15,10,46,16.40
2016,09,15,10,47,16.50
2016,09,15,10,48,16.50
2016,09,15,10,49,16.60
2016,09,15,10,50,16.60
2016,09,15,10,51,16.70
2016,09,15,10,52,16.80
2016,09,15,10,53,16.80
2016,09,15,10,54,16.90
2016,09,15,10,55,16.90
2016,09,15,10,56,17.00
2016,09,15,10,57,17.10
2016,09,15,10,58,17.20
2016,09,15,10,59,17.20
2016,09,15,11,00,17.30
2016,09,15,11,01,17.30
2016,09,15,11,02,17.40
2016,09,15,11,03,17.50
2016,09,15,11,04,17.60
2016,09,15,11,05,17.60
2016,09,15,11,06,17.60
2016,09,15,11,07,17.70
2016,09,15,11,08,17.80
2016,09,15,11,09,17.90
2016,09,15,11,10,18.00
2016,09,15,11,11,18.10
2016,09,15,11,12,18.20
2016,09,15,11,13,18.30
2016,09,15,11,14,18.50
2016,09,15,11,15,18.60
2016,09,15,11,16,18.70
2016,09,15,11,17,18.90
2016,09,15,11,18,19.00
2016,09,15,11,19,19.10
2016,09,15,11,20,19.20
2016,09,15,11,21,19.30
2016,09,15,11,22,19.30
2016,09,15,11,23,19.40
2016,09,15,11,24,19.50
2016,09,15,11,25,19.60
2016,09,15,11,26,19.60
2016,09,15,11,27,19.70
2016,09,15,11,28,19.70
2016,09,15,11,29,19.80
2016,09,15,11,30,19.80
2016,09,15,11,31,19.80
2016,09,15,11,32,19.70
2016,09,15,11,33,19.70
2016,09,15,11,34,19.70
2016,09,15,11,35,19.60
2016,09,15,11,36,19.60
2016,09,15,11,37,19.50
2016,09,15,11,38,19.50
2016,09,15,11,39,19.40
2016,09,15,11,40,19.30
2016,09,15,11,41,19.20
2016,09,15,11,42,19.20
2016,09,15,11,43,19.10
2016,09,15,11,44,19.10
2016,09,15,11,45,19.10
2016,09,15,11,46,19.10
2016,09,15,11,47,19.10
2016,09,15,11,48,19.20
2016,09,15,11,49,19.20
2016,09,15,11,50,19.30
2016,09,15,11,51,19.30
2016,09,15,11,52,19.40
2016,09,15,11,53,19.50
2016,09,15,11,54,19.60
2016,09,15,11,55,19.60
2016,09,15,11,56,19.70
2016,09,15,11,57,19.80
2016,09,15,11,58,19.80
2016,09,15,11,59,19.90
2016,09,15,12,00,19.90
2016,09,15,12,01,19.80
2016,09,15,12,02,19.80
2016,09,15,12,03,19.80
2016,09,15,12,04,19.90
2016,09,15,12,05,20.00
2016,09,15,12,06,20.10
2016,09,15,12,07,20.10
2016,09,15,12,08,20.20
2016,09,15,12,09,20.30
2016,09,15,12,10,20.30
2016,09,15,12,11,20.40
2016,09,15,12,12,20.50
2016,09,15,12,13,20.60
2016,09,15,12,14,20.60
2016,09,15,12,15,20.60
2016,09,15,12,16,20.60
2016,09,15,12,17,20.60
2016,09,15,12,18,20.70
2016,09,15,12,19,20.70
2016,09,15,12,20,20.70
2016,09,15,12,21,20.60
2016,09,15,12,22,20.60
2016,09,15,12,23,20.50
2016,09,15,12,24,20.50
2016,09,15,12,25,20.40
2016,09,15,12,26,20.40
2016,09,15,12,27,20.30
2016,09,15,12,28,20.30
2016,09,15,12,29,20.30
2016,09,15,12,30,20.30
2016,09,15,12,31,20.30
2016,09,15,12,32,20.30
2016,09,15,12,33,20.30
2016,09,15,12,34,20.30
2016,09,15,12,35,20.30
2016,09,15,12,36,20.20
2016,09,15,12,37,20.20
2016,09,15,12,38,20.10
2016,09,15,12,39,20.10
2016,09,15,12,40,20.10
2016,09,15,12,41,20.10
2016,09,15,12,42,20.10
2016,09,15,12,43,20.10
2016,09,15,12,44,20.20
2016,09,15,12,45,20.20
2016,09,15,12,46,20.20
2016,09,15,12,47,20.20
2016,09,15,12,48,20.20
2016,09,15,12,49,20.30
2016,09,15,12,50,20.30
2016,09,15,12,51,20.30
2016,09,15,12,52,20.30
2016,09,15,12,53,20.40
2016,09,15,12,54,20.40
2016,09,15,12,55,20.40
2016,09,15,12,56,20.40
2016,09,15,12,57,20.50
2016,09,15,12,58,20.50
2016,09,15,12,59,20.50
2016,09,15,13,00,20.50
2016,09,15,13,01,20.40
2016,09,15,13,02,20.40
2016,09,15,13,03,20.40
2016,09,15,13,04,20.40
2016,09,15,13,05,20.50
2016,09,15,13,06,20.50
2016,09,15,13,07,20.60
2016,09,15,13,08,20.60
2016,09,15,13,09,20.60
2016,09,15,13,10,20.60
2016,09,15,13,11,20.60
2016,09,15,13,12,20.60
2016,09,15,13,13,20.60
2016,09,15,13,14,20.60
2016,09,15,13,15,20.60
2016,09,15,13,16,20.60
2016,09,15,13,17,20.60
2016,09,15,13,18,20.60
2016,09,15,13,19,20.60
2016,09,15,13,20,20.60
2016,09,15,13,21,20.60
2016,09,15,13,22,20.60
2016,09,15,13,23,20.60
2016,09,15,13,24,20.60
2016,09,15,13,25,20.50
2016,09,15,13,26,20.50
2016,09,15,13,27,20.40
2016,09,15,13,28,20.40
2016,09,15,13,29,20.40
2016,09,15,13,30,20.40
2016,09,15,13,31,20.30
2016,09,15,13,32,20.30
2016,09,15,13,33,20.30
2016,09,15,13,34,20.20
2016,09,15,13,35,20.20
2016,09,15,13,36,20.10
2016,09,15,13,37,20.10
2016,09,15,13,38,20.10
2016,09,15,13,39,20.10
2016,09,15,13,40,20.20
2016,09,15,13,41,20.20
2016,09,15,13,42,20.20
2016,09,15,13,43,20.20
2016,09,15,13,44,20.20
2016,09,15,13,45,20.20
2016,09,15,13,46,20.30
2016,09,15,13,47,20.30
2016,09,15,13,48,20.30
2016,09,15,13,49,20.30
2016,09,15,13,50,20.20
2016,09,15,13,51,20.20
2016,09,15,13,52,20.30
2016,09,15,13,53,20.30
2016,09,15,13,54,20.30
2016,09,15,13,55,20.40
2016,09,15,13,56,20.50
2016,09,15,13,57,20.50
2016,09,15,13,58,20.50
2016,09,15,13,59,20.50
2016,09,15,14,00,20.50
2016,09,15,14,01,20.40
2016,09,15,14,02,20.50
2016,09,15,14,03,20.50
2016,09,15,14,04,20.60
2016,09,15,14,05,20.70
2016,09,15,14,06,20.70
2016,09,15,14,07,20.70
2016,09,15,14,08,20.80
2016,09,15,14,09,20.80
2016,09,15,14,10,20.80
2016,09,15,14,11,20.80
2016,09,15,14,12,20.80
2016,09,15,14,13,20.80
2016,09,15,14,14,20.80
2016,09,15,14,15,20.80
2016,09,15,14,16,20.80
2016,09,15,14,17,20.90
2016,09,15,14,18,20.90
2016,09,15,14,19,20.90
2016,09,15,14,20,20.90
2016,09,15,14,21,20.90
2016,09,15,14,22,20.90
2016,09,15,14,23,20.90
2016,09,15,14,24,20.90
2016,09,15,14,25,21.00
2016,09,15,14,26,21.00
2016,09,15,14,27,21.10
2016,09,15,14,28,21.10
2016,09,15,14,29,21.10
2016,09,15,14,30,21.20
2016,09,15,14,31,21.20
2016,09,15,14,32,21.20
2016,09,15,14,33,21.30
2016,09,15,14,34,21.30
2016,09,15,14,35,21.30
2016,09,15,14,36,21.30
2016,09,15,14,37,21.40
2016,09,15,14,38,21.30
2016,09,15,14,39,21.30
2016,09,15,14,40,21.30
2016,09,15,14,41,21.30
2016,09,15,14,42,21.20
2016,09,15,14,43,21.20
2016,09,15,14,44,21.20
2016,09,15,14,45,21.20
2016,09,15,14,46,21.10
2016,09,15,14,47,21.10
2016,09,15,14,48,21.00
2016,09,15,14,49,21.00
2016,09,15,14,50,20.90
2016,09,15,14,51,20.90
2016,09,15,14,52,20.90
2016,09,15,14,53,20.90
2016,09,15,14,54,20.90
2016,09,15,14,55,20.90
2016,09,15,14,56,20.80
2016,09,15,14,57,20.80
2016,09,15,14,58,20.80
2016,09,15,14,59,20.80
2016,09,15,15,00,20.80
2016,09,15,15,01,20.90
2016,09,15,15,02,20.90
2016,09,15,15,03,21.00
2016,09,15,15,04,21.00
2016,09,15,15,05,21.10
2016,09,15,15,06,21.10
2016,09,15,15,07,21.10
2016,09,15,15,08,21.10
2016,09,15,15,09,21.10
2016,09,15,15,10,21.10
2016,09,15,15,11,21.20
2016,09,15,15,12,21.20
2016,09,15,15,13,21.20
2016,09,15,15,14,21.20
2016,09,15,15,15,21.10
2016,09,15,15,16,21.10
2016,09,15,15,17,21.00
2016,09,15,15,18,21.00
2016,09,15,15,19,20.90
2016,09,15,15,20,20.90
2016,09,15,15,21,20.90
2016,09,15,15,22,20.90
2016,09,15,15,23,20.90
2016,09,15,15,24,20.90
2016,09,15,15,25,20.90
2016,09,15,15,26,20.90
2016,09,15,15,27,20.90
2016,09,15,15,28,20.90
2016,09,15,15,29,20.90
2016,09,15,15,30,20.90
2016,09,15,15,31,20.90
2016,09,15,15,32,20.90
2016,09,15,15,33,20.90
2016,09,15,15,34,21.00
2016,09,15,15,35,21.00
2016,09,15,15,36,21.00
2016,09,15,15,37,20.90
2016,09,15,15,38,20.90
2016,09,15,15,39,20.90
2016,09,15,15,40,20.80
2016,09,15,15,41,20.80
2016,09,15,15,42,20.70
2016,09,15,15,43,20.70
2016,09,15,15,44,20.70
2016,09,15,15,45,20.70
2016,09,15,15,46,20.70
2016,09,15,15,47,20.70
2016,09,15,15,48,20.70
2016,09,15,15,49,20.70
2016,09,15,15,50,20.70
2016,09,15,15,51,20.70
2016,09,15,15,52,20.60
2016,09,15,15,53,20.60
2016,09,15,15,54,20.60
2016,09,15,15,55,20.60
2016,09,15,15,56,20.60
2016,09,15,15,57,20.60
2016,09,15,15,58,20.50
2016,09,15,15,59,20.40
2016,09,15,16,00,20.30
2016,09,15,16,01,20.20
2016,09,15,16,02,20.10
2016,09,15,16,03,19.90
2016,09,15,16,04,19.80
2016,09,15,16,05,19.70
2016,09,15,16,06,19.60
2016,09,15,16,07,19.50
2016,09,15,16,08,19.50
2016,09,15,16,09,19.40
2016,09,15,16,10,19.40
2016,09,15,16,11,19.40
2016,09,15,16,12,19.40
2016,09,15,16,13,19.30
2016,09,15,16,14,19.30
2016,09,15,16,15,19.30
2016,09,15,16,16,19.20
2016,09,15,16,17,19.30
2016,09,15,16,18,19.20
2016,09,15,16,19,19.20
2016,09,15,16,20,19.20
2016,09,15,16,21,19.30
2016,09,15,16,22,19.30
2016,09,15,16,23,19.30
2016,09,15,16,24,19.40
2016,09,15,16,25,19.40
2016,09,15,16,26,19.40
2016,09,15,16,27,19.50
2016,09,15,16,28,19.50
2016,09,15,16,29,19.50
2016,09,15,16,30,19.50
2016,09,15,16,31,19.60
2016,09,15,16,32,19.60
2016,09,15,16,33,19.60
2016,09,15,16,34,19.70
2016,09,15,16,35,19.70
2016,09,15,16,36,19.70
2016,09,15,16,37,19.70
2016,09,15,16,38,19.70
2016,09,15,16,39,19.70
2016,09,15,16,40,19.70
2016,09,15,16,41,19.70
2016,09,15,16,42,19.80
2016,09,15,16,43,19.80
2016,09,15,16,44,19.80
2016,09,15,16,45,19.80
2016,09,15,16,46,19.90
2016,09,15,16,47,19.90
2016,09,15,16,48,19.90
2016,09,15,16,49,19.90
2016,09,15,16,50,19.90
2016,09,15,16,51,19.90
2016,09,15,16,52,19.90
2016,09,15,16,53,19.90
2016,09,15,16,54,19.90
2016,09,15,16,55,19.90
2016,09,15,16,56,19.90
2016,09,15,16,57,19.90
2016,09,15,16,58,19.90
2016,09,15,16,59,19.90
2016,09,15,17,00,19.90
2016,09,15,17,01,19.90
2016,09,15,17,02,19.90
2016,09,15,17,03,19.90
2016,09,15,17,04,19.90
2016,09,15,17,05,19.90
2016,09,15,17,06,19.90
2016,09,15,17,07,19.90
2016,09,15,17,08,19.90
2016,09,15,17,09,19.90
2016,09,15,17,10,19.90
2016,09,15,17,11,19.90
2016,09,15,17,12,19.90
2016,09,15,17,13,19.90
2016,09,15,17,14,19.90
2016,09,15,17,15,19.90
2016,09,15,17,16,19.80
2016,09,15,17,17,19.80
2016,09,15,17,18,19.80
2016,09,15,17,19,19.80
2016,09,15,17,20,19.80
2016,09,15,17,21,19.80
2016,09,15,17,22,19.70